Weather History for Brunswick, GA

Change the Weather History Date:

Saturday, December 10, 2011

  Actual Average Record
Temperature  
Mean Temperature 54 °F -  
Max Temperature 57 °F 67 °F 84 °F (2012)
Min Temperature 51 °F 46 °F 28 °F (1955)
Degree Days  
Heating Degree Days 11    
Growing Degree Days 4 (Base 50)    
Moisture  
Dew Point 49 °F    
Average Humidity 83    
Maximum Humidity 94    
Minimum Humidity 72    
Precipitation  
Precipitation 0.00 in - - ()
Sea Level Pressure  
Sea Level Pressure 30.25 in    
Wind  
Wind Speed 3 mph (North)    
Max Wind Speed 9 mph    
Max Gust Speed -    
Visibility 10 miles    
Events      
Averages and records for this station are not official NWS values.
T = Trace of Precipitation, MM = Missing Value Source: NWS Daily Summary

Daily Weather History Graph

Daily Weather History Graph

Search for Another Location

Airport:

Trip Planner

Search our weather history database for the weather conditions in past years. The results will help you decide how hot, cold, wet, or windy it might be!

Date:

Astronomy

Dec. 10, 2011 Rise Set
Actual Time 7:13 AM EST 5:23 PM EST
Civil Twilight 6:46 AM EST 5:50 PM EST
Nautical Twilight 6:16 AM EST 6:20 PM EST
Astronomical Twilight 5:47 AM EST 6:49 PM EST
Moon 5:37 PM EST (12/10) 7:11 AM EST (12/10)
Length of Visible Light 11h 03m
Length of Day
10h 09m
Full, 100% of the Moon is Illuminated
Dec 10
Full
Dec 17
Last Quarter
Dec 24
New
Jan 1
First Quarter
Jan 9
Full

Hourly Weather History & Observations

Time (EST) Temp. Dew Point Humidity Pressure Visibility Wind Dir Wind Speed Gust Speed Precip Events Conditions
12:15 AM 57.2 °F 51.8 °F 82% 30.21 in 10.0 mi Calm Calm - N/A   Mostly Cloudy
12:35 AM 55.4 °F 51.8 °F 88% 30.20 in 10.0 mi Calm Calm - N/A   Overcast
12:55 AM 55.4 °F 51.8 °F 88% 30.19 in 10.0 mi Calm Calm - N/A   Scattered Clouds
1:15 AM 53.6 °F 51.8 °F 94% 30.19 in 10.0 mi Calm Calm - N/A   Scattered Clouds
1:35 AM 55.4 °F 51.8 °F 88% 30.19 in 10.0 mi Calm Calm - N/A   Overcast
1:55 AM 53.6 °F 51.8 °F 94% 30.19 in 10.0 mi Calm Calm - N/A   Overcast
2:15 AM 55.4 °F 51.8 °F 88% 30.19 in 10.0 mi Calm Calm - N/A   Overcast
2:35 AM 55.4 °F 50.0 °F 82% 30.18 in 10.0 mi Calm Calm - N/A   Overcast
2:55 AM 55.4 °F 50.0 °F 82% 30.18 in 10.0 mi Calm Calm - N/A   Overcast
3:15 AM 55.4 °F 50.0 °F 82% 30.18 in 10.0 mi Calm Calm - N/A   Mostly Cloudy
3:35 AM 55.4 °F 50.0 °F 82% 30.19 in 10.0 mi NW 3.5 mph - N/A   Overcast
3:55 AM 55.4 °F 50.0 °F 82% 30.19 in 10.0 mi NW 6.9 mph - N/A   Overcast
4:15 AM 55.4 °F 50.0 °F 82% 30.20 in 10.0 mi NW 6.9 mph - N/A   Overcast
4:35 AM 55.4 °F 50.0 °F 82% 30.20 in 10.0 mi NNW 6.9 mph - N/A   Overcast
4:55 AM 55.4 °F 50.0 °F 82% 30.20 in 10.0 mi NNW 3.5 mph - N/A   Overcast
5:15 AM 53.6 °F 50.0 °F 88% 30.20 in 10.0 mi North 5.8 mph - N/A   Overcast
5:35 AM 53.6 °F 50.0 °F 88% 30.21 in 10.0 mi North 4.6 mph - N/A   Overcast
5:55 AM 53.6 °F 50.0 °F 88% 30.21 in 10.0 mi North 5.8 mph - N/A   Overcast
6:15 AM 53.6 °F 50.0 °F 88% 30.21 in 10.0 mi North 4.6 mph - N/A   Overcast
6:35 AM 53.6 °F 50.0 °F 88% 30.23 in 10.0 mi North 8.1 mph - N/A   Overcast
6:55 AM 51.8 °F 50.0 °F 94% 30.24 in 10.0 mi North 6.9 mph - N/A   Overcast
7:15 AM 51.8 °F 48.2 °F 88% 30.25 in 10.0 mi NNW 5.8 mph - N/A   Overcast
7:35 AM 51.8 °F 48.2 °F 88% 30.26 in 10.0 mi NNW 4.6 mph - N/A   Overcast
7:55 AM 51.8 °F 48.2 °F 88% 30.26 in 10.0 mi North 8.1 mph - N/A   Overcast
8:15 AM 51.8 °F 48.2 °F 88% 30.26 in 10.0 mi North 6.9 mph - N/A   Overcast
8:35 AM 51.8 °F 48.2 °F 88% 30.27 in 7.0 mi Calm Calm - N/A   Overcast
8:55 AM 51.8 °F 50.0 °F 94% 30.27 in 7.0 mi NNE 4.6 mph - N/A   Overcast
9:15 AM 51.8 °F 50.0 °F 94% 30.29 in 10.0 mi Calm Calm - N/A   Overcast
9:35 AM 53.6 °F 50.0 °F 88% 30.29 in 10.0 mi NNE 4.6 mph - N/A   Overcast
9:55 AM 53.6 °F 50.0 °F 88% 30.29 in 10.0 mi North 3.5 mph - N/A   Overcast
10:15 AM 53.6 °F 50.0 °F 88% 30.29 in 10.0 mi NNE 4.6 mph - N/A   Overcast
10:35 AM 55.4 °F 50.0 °F 82% 30.29 in 10.0 mi North 4.6 mph - N/A   Overcast
10:55 AM 55.4 °F 50.0 °F 82% 30.30 in 10.0 mi North 6.9 mph - N/A   Overcast
11:15 AM 55.4 °F 50.0 °F 82% 30.29 in 10.0 mi North 4.6 mph - N/A   Overcast
11:35 AM 55.4 °F 50.0 °F 82% 30.28 in 10.0 mi North 4.6 mph - N/A   Overcast
11:55 AM 55.4 °F 50.0 °F 82% 30.28 in 10.0 mi North 5.8 mph - N/A   Overcast
12:15 PM 55.4 °F 48.2 °F 77% 30.28 in 10.0 mi North 4.6 mph - N/A   Overcast
12:35 PM 55.4 °F 48.2 °F 77% 30.27 in 10.0 mi Calm Calm - N/A   Overcast
12:55 PM 55.4 °F 48.2 °F 77% 30.27 in 10.0 mi North 4.6 mph - N/A   Overcast
1:15 PM 55.4 °F 48.2 °F 77% 30.26 in 10.0 mi North 4.6 mph - N/A   Overcast
1:35 PM 55.4 °F 46.4 °F 72% 30.26 in 10.0 mi NNE 4.6 mph - N/A   Overcast
1:55 PM 55.4 °F 46.4 °F 72% 30.27 in 10.0 mi North 6.9 mph - N/A   Overcast
2:15 PM 53.6 °F 46.4 °F 77% 30.27 in 10.0 mi North 8.1 mph - N/A   Overcast
2:35 PM 53.6 °F 46.4 °F 77% 30.27 in 10.0 mi North 6.9 mph - N/A   Overcast
2:55 PM 53.6 °F 46.4 °F 77% 30.28 in 10.0 mi North 6.9 mph - N/A   Overcast
3:15 PM 53.6 °F 46.4 °F 77% 30.28 in 10.0 mi North 5.8 mph - N/A   Overcast
3:35 PM 53.6 °F 48.2 °F 82% 30.29 in 10.0 mi North 6.9 mph - N/A   Overcast
3:55 PM 53.6 °F 48.2 °F 82% 30.28 in 10.0 mi NNE 6.9 mph - N/A   Overcast
4:15 PM 53.6 °F 46.4 °F 77% 30.28 in 10.0 mi NNE 6.9 mph - N/A   Overcast
4:35 PM 53.6 °F 46.4 °F 77% 30.28 in 10.0 mi NNE 9.2 mph - N/A   Overcast
4:55 PM 53.6 °F 46.4 °F 77% 30.29 in 10.0 mi North 6.9 mph - N/A   Overcast
5:15 PM 53.6 °F 46.4 °F 77% 30.30 in 10.0 mi NNE 6.9 mph - N/A   Overcast
5:35 PM 53.6 °F 46.4 °F 77% 30.29 in 10.0 mi NE 6.9 mph - N/A   Overcast
5:55 PM 53.6 °F 46.4 °F 77% 30.30 in 10.0 mi NNE 5.8 mph - N/A   Overcast
6:15 PM 53.6 °F 46.4 °F 77% 30.31 in 10.0 mi North 8.1 mph - N/A   Overcast
6:35 PM 53.6 °F 44.6 °F 72% 30.32 in 10.0 mi NNE 8.1 mph - N/A   Overcast
6:55 PM 53.6 °F 44.6 °F 72% 30.32 in 10.0 mi NNE 6.9 mph - N/A   Overcast
7:15 PM 53.6 °F 44.6 °F 72% 30.32 in 10.0 mi NNE 4.6 mph - N/A   Overcast
7:35 PM 53.6 °F 44.6 °F 72% 30.32 in 10.0 mi NNE 5.8 mph - N/A   Overcast
7:55 PM 53.6 °F 42.8 °F 67% 30.33 in 10.0 mi NNE 5.8 mph - N/A   Overcast
8:15 PM 53.6 °F 42.8 °F 67% 30.33 in 10.0 mi NNE 8.1 mph - N/A   Overcast
8:35 PM 53.6 °F 42.8 °F 67% 30.33 in 10.0 mi NNE 10.4 mph - N/A   Overcast
8:55 PM 53.6 °F 42.8 °F 67% 30.33 in 10.0 mi NE 9.2 mph - N/A   Overcast
9:15 PM 55.4 °F 41.0 °F 58% 30.33 in 10.0 mi NE 10.4 mph - N/A   Overcast
9:35 PM 53.6 °F 42.8 °F 67% 30.34 in 10.0 mi NNE 6.9 mph - N/A   Overcast
9:55 PM 53.6 °F 42.8 °F 67% 30.34 in 10.0 mi NNE 6.9 mph - N/A   Overcast
10:15 PM 53.6 °F 42.8 °F 67% 30.35 in 10.0 mi North 4.6 mph - N/A   Overcast
10:35 PM 53.6 °F 42.8 °F 67% 30.35 in 10.0 mi NNE 5.8 mph - N/A   Overcast
10:55 PM 51.8 °F 42.8 °F 71% 30.34 in 10.0 mi NNE 6.9 mph - N/A   Overcast
11:15 PM 51.8 °F 42.8 °F 71% 30.34 in 10.0 mi North 5.8 mph - N/A   Overcast
11:35 PM 51.8 °F 42.8 °F 71% 30.34 in 10.0 mi North 6.9 mph - N/A   Overcast
11:55 PM 51.8 °F 42.8 °F 71% 30.33 in 10.0 mi NNE 5.8 mph - N/A   Overcast